FDX1800 PHNL-KOAK

Flight info

Callsign FDX1800
Flight time 4h 36m
Altitude 33000
Route MKK5 KOLEA CLUTS R465 CORTT/N0483F350 R465 CINNY PIRAT3
Aircraft B77L/H-SDE1E2E3FGHIJ2J3J4J5M1RWXY/LB1D1

Departure

Time 2026-05-06 01:54
Airport Daniel K. Inouye International Airport (PHNL)

Arrival

Time 2026-05-06 06:30
Airport San Francisco Bay Oakland International Airport (KOAK)
Time Latitude Longitude Altitude Speed Heading
2026-05-06 00:58 21.31947 -157.91478 31 ft 0 kts 142°
2026-05-06 01:40 21.31955 -157.91484 31 ft 2 kts 150°
2026-05-06 01:40 21.31969 -157.91492 31 ft 2 kts 165°
2026-05-06 01:40 21.31984 -157.91493 31 ft 2 kts 177°
2026-05-06 01:41 21.31999 -157.91493 31 ft 2 kts 190°
2026-05-06 01:41 21.32025 -157.91483 30 ft 2 kts 214°
2026-05-06 01:41 21.32037 -157.91473 30 ft 2 kts 226°
2026-05-06 01:42 21.32046 -157.91461 30 ft 2 kts 236°
2026-05-06 01:42 21.32048 -157.91458 30 ft 0 kts 236°
2026-05-06 01:46 21.32037 -157.91476 30 ft 8 kts 238°
2026-05-06 01:46 21.31979 -157.91574 30 ft 21 kts 235°
2026-05-06 01:46 21.31874 -157.91733 30 ft 26 kts 234°
2026-05-06 01:46 21.31759 -157.91901 30 ft 28 kts 232°
2026-05-06 01:47 21.31643 -157.92061 31 ft 25 kts 233°
2026-05-06 01:47 21.31535 -157.92213 31 ft 24 kts 232°
2026-05-06 01:47 21.31436 -157.92351 31 ft 21 kts 234°
2026-05-06 01:47 21.31338 -157.92497 31 ft 26 kts 232°
2026-05-06 01:48 21.31254 -157.92563 30 ft 12 kts 173°
2026-05-06 01:48 21.31176 -157.92502 28 ft 18 kts 138°
2026-05-06 01:48 21.31058 -157.92390 26 ft 23 kts 139°
2026-05-06 01:48 21.30978 -157.92386 23 ft 12 kts 240°
2026-05-06 01:49 21.30967 -157.92502 23 ft 22 kts 268°
2026-05-06 01:49 21.30966 -157.92700 23 ft 23 kts 270°
2026-05-06 01:49 21.30968 -157.92868 23 ft 21 kts 270°
2026-05-06 01:49 21.30968 -157.93037 21 ft 24 kts 271°
2026-05-06 01:50 21.30967 -157.93242 21 ft 28 kts 269°
2026-05-06 01:50 21.30967 -157.93445 21 ft 27 kts 270°
2026-05-06 01:50 21.30969 -157.93654 21 ft 29 kts 270°
2026-05-06 01:50 21.30969 -157.93886 21 ft 31 kts 270°
2026-05-06 01:51 21.30968 -157.94084 21 ft 27 kts 270°
2026-05-06 01:51 21.30968 -157.94299 21 ft 30 kts 269°
2026-05-06 01:51 21.30967 -157.94437 21 ft 10 kts 270°
2026-05-06 01:51 21.30953 -157.94540 22 ft 12 kts 232°
2026-05-06 01:52 21.30871 -157.94565 21 ft 15 kts 181°
2026-05-06 01:52 21.30753 -157.94565 21 ft 16 kts 179°
2026-05-06 01:52 21.30683 -157.94502 21 ft 13 kts 93°
2026-05-06 01:52 21.30682 -157.94476 21 ft 2 kts 92°
2026-05-06 01:53 21.30679 -157.94257 21 ft 63 kts 89°
2026-05-06 01:53 21.30680 -157.93533 21 ft 129 kts 91°
2026-05-06 01:53 21.30678 -157.92343 25 ft 184 kts 91°
2026-05-06 01:53 21.30683 -157.90897 372 ft 201 kts 97°
2026-05-06 01:54 21.30305 -157.89525 1271 ft 191 kts 121°
2026-05-06 01:54 21.29504 -157.88411 1650 ft 197 kts 147°
2026-05-06 01:54 21.28170 -157.87860 1795 ft 216 kts 168°
2026-05-06 01:54 21.26619 -157.87540 2020 ft 235 kts 170°
2026-05-06 01:55 21.24955 -157.87212 2418 ft 247 kts 170°
2026-05-06 01:55 21.23229 -157.86862 2865 ft 260 kts 170°
2026-05-06 01:55 21.21448 -157.86500 3469 ft 265 kts 170°
2026-05-06 01:55 21.19628 -157.86136 4149 ft 267 kts 170°
2026-05-06 01:56 21.17805 -157.85767 4797 ft 270 kts 170°
2026-05-06 01:56 21.15938 -157.85396 5452 ft 272 kts 169°
2026-05-06 01:56 21.14172 -157.84656 6016 ft 277 kts 144°
2026-05-06 01:56 21.12896 -157.83156 6565 ft 280 kts 118°
2026-05-06 01:57 21.12351 -157.81152 7121 ft 284 kts 92°
2026-05-06 01:57 21.12699 -157.79083 7630 ft 288 kts 65°
2026-05-06 01:57 21.13716 -157.77222 8148 ft 291 kts 57°
2026-05-06 01:57 21.14816 -157.75424 8721 ft 293 kts 57°
2026-05-06 01:58 21.15956 -157.73579 9243 ft 296 kts 57°
2026-05-06 01:58 21.17088 -157.71744 9762 ft 299 kts 57°
2026-05-06 01:58 21.18233 -157.69885 10286 ft 305 kts 57°
2026-05-06 01:58 21.19430 -157.67934 10468 ft 322 kts 57°
2026-05-06 01:59 21.20703 -157.65858 10588 ft 341 kts 57°
2026-05-06 01:59 21.22033 -157.63686 10730 ft 359 kts 57°
2026-05-06 01:59 21.23442 -157.61381 10918 ft 376 kts 57°
2026-05-06 01:59 21.24891 -157.59015 11132 ft 391 kts 57°
2026-05-06 02:00 21.26417 -157.56529 11591 ft 399 kts 57°
2026-05-06 02:00 21.27933 -157.54060 12198 ft 403 kts 57°
2026-05-06 02:00 21.29471 -157.51552 12839 ft 406 kts 56°
2026-05-06 02:00 21.31030 -157.49008 13476 ft 410 kts 56°
2026-05-06 02:01 21.32608 -157.46433 14110 ft 415 kts 56°
2026-05-06 02:01 21.34189 -157.43852 14769 ft 419 kts 56°
2026-05-06 02:01 21.35808 -157.41209 15499 ft 423 kts 56°
2026-05-06 02:01 21.37429 -157.38559 16186 ft 428 kts 56°
2026-05-06 02:02 21.39047 -157.35913 16855 ft 432 kts 56°
2026-05-06 02:02 21.40708 -157.33197 17518 ft 436 kts 56°
2026-05-06 02:02 21.42377 -157.30464 18164 ft 441 kts 56°
2026-05-06 02:02 21.44058 -157.27712 18773 ft 446 kts 56°
2026-05-06 02:03 21.45773 -157.24901 19373 ft 451 kts 56°
2026-05-06 02:03 21.47498 -157.22076 19954 ft 456 kts 56°
2026-05-06 02:03 21.49236 -157.19225 20565 ft 460 kts 55°
2026-05-06 02:03 21.50981 -157.16360 21176 ft 463 kts 55°
2026-05-06 02:04 21.52736 -157.13481 21745 ft 467 kts 55°
2026-05-06 02:04 21.54532 -157.10530 22306 ft 472 kts 55°
2026-05-06 02:04 21.56343 -157.07555 22864 ft 476 kts 55°
2026-05-06 02:04 21.58142 -157.04597 23386 ft 480 kts 55°
2026-05-06 02:05 21.59984 -157.01567 23911 ft 484 kts 55°
2026-05-06 02:05 21.61809 -156.98563 24431 ft 488 kts 55°
2026-05-06 02:05 21.63679 -156.95483 24968 ft 492 kts 55°
2026-05-06 02:05 21.65554 -156.92394 25489 ft 497 kts 55°
2026-05-06 02:06 21.67434 -156.89293 25998 ft 501 kts 55°
2026-05-06 02:06 21.69351 -156.86131 26541 ft 505 kts 55°
2026-05-06 02:06 21.71269 -156.82967 27048 ft 510 kts 55°
2026-05-06 02:06 21.73205 -156.79768 27590 ft 513 kts 55°
2026-05-06 02:07 21.75174 -156.76515 28112 ft 518 kts 55°
2026-05-06 02:07 21.77135 -156.73273 28630 ft 522 kts 55°
2026-05-06 02:07 21.79105 -156.70012 29143 ft 526 kts 55°
2026-05-06 02:07 21.81113 -156.66689 29770 ft 527 kts 55°
2026-05-06 02:08 21.83095 -156.63405 30502 ft 525 kts 55°
2026-05-06 02:08 21.85077 -156.60118 30976 ft 527 kts 55°
2026-05-06 02:08 21.89037 -156.53546 31031 ft 524 kts 54°
2026-05-06 02:09 21.93006 -156.46951 31033 ft 523 kts 55°
2026-05-06 02:09 21.96944 -156.40402 31034 ft 523 kts 55°
2026-05-06 02:10 22.00897 -156.33818 31029 ft 523 kts 55°
2026-05-06 02:10 22.04840 -156.27241 31026 ft 523 kts 55°
2026-05-06 02:11 22.08768 -156.20685 31027 ft 523 kts 55°
2026-05-06 02:11 22.12724 -156.14070 31027 ft 523 kts 55°
2026-05-06 02:12 22.16647 -156.07504 31027 ft 523 kts 55°
2026-05-06 02:12 22.20583 -156.00908 31028 ft 523 kts 55°
2026-05-06 02:13 22.24521 -155.94301 31029 ft 522 kts 55°
2026-05-06 02:13 22.28442 -155.87714 31029 ft 523 kts 55°
2026-05-06 02:14 22.32361 -155.81123 31034 ft 523 kts 55°
2026-05-06 02:14 22.36297 -155.74493 31033 ft 523 kts 55°
2026-05-06 02:15 22.40204 -155.67905 31036 ft 523 kts 55°
2026-05-06 02:15 22.44112 -155.61305 31039 ft 523 kts 55°
2026-05-06 02:16 22.48043 -155.54660 31041 ft 523 kts 55°
2026-05-06 02:16 22.51941 -155.48064 31043 ft 523 kts 55°
2026-05-06 02:17 22.55844 -155.41450 31045 ft 523 kts 55°
2026-05-06 02:17 22.59767 -155.34793 31046 ft 523 kts 56°
2026-05-06 02:18 22.63659 -155.28181 31040 ft 523 kts 56°
2026-05-06 02:18 22.67556 -155.21553 31041 ft 523 kts 56°
2026-05-06 02:19 22.71458 -155.14908 31046 ft 525 kts 56°
2026-05-06 02:19 22.75363 -155.08247 31048 ft 524 kts 56°
2026-05-06 02:20 22.81207 -154.98265 31049 ft 524 kts 56°
2026-05-06 02:21 22.85090 -154.91625 31053 ft 525 kts 56°
2026-05-06 02:21 22.88978 -154.84964 31052 ft 524 kts 56°
2026-05-06 02:22 22.92881 -154.78270 31056 ft 523 kts 56°
2026-05-06 02:22 22.96746 -154.71632 31059 ft 523 kts 56°
2026-05-06 02:23 23.00617 -154.64977 31060 ft 523 kts 55°
2026-05-06 02:23 23.04622 -154.58385 31063 ft 523 kts 54°
2026-05-06 02:24 23.08656 -154.51791 31061 ft 523 kts 54°
2026-05-06 02:24 23.12650 -154.45244 31066 ft 522 kts 54°
2026-05-06 02:25 23.16641 -154.38689 31066 ft 522 kts 54°
2026-05-06 02:25 23.20651 -154.32088 31059 ft 523 kts 55°
2026-05-06 02:26 23.24646 -154.25502 31063 ft 522 kts 55°
2026-05-06 02:26 23.28636 -154.18916 31059 ft 522 kts 55°
2026-05-06 02:27 23.32601 -154.12363 31059 ft 522 kts 55°
2026-05-06 02:27 23.36596 -154.05749 31064 ft 522 kts 55°
2026-05-06 02:28 23.40578 -153.99150 31063 ft 522 kts 55°
2026-05-06 02:28 23.44558 -153.92546 31065 ft 522 kts 55°
2026-05-06 02:29 23.48525 -153.85956 31065 ft 522 kts 54°
2026-05-06 02:29 23.52509 -153.79327 31063 ft 523 kts 54°
2026-05-06 02:30 23.56472 -153.72723 31065 ft 522 kts 54°
2026-05-06 02:30 23.60432 -153.66118 31064 ft 522 kts 54°
2026-05-06 02:31 23.64394 -153.59499 31065 ft 522 kts 54°
2026-05-06 02:31 23.68358 -153.52869 31067 ft 522 kts 55°
2026-05-06 02:32 23.72304 -153.46258 31066 ft 522 kts 54°
2026-05-06 02:32 23.76258 -153.39629 31071 ft 522 kts 54°
2026-05-06 02:33 23.80215 -153.32997 31064 ft 522 kts 55°
2026-05-06 02:33 23.81550 -153.30769 31064 ft 522 kts 55°
2026-05-06 02:34 23.88144 -153.19745 31066 ft 522 kts 55°
2026-05-06 02:34 23.92105 -153.13110 31066 ft 521 kts 55°
2026-05-06 02:35 23.96048 -153.06496 31069 ft 522 kts 55°
2026-05-06 02:35 24.00007 -152.99846 31070 ft 520 kts 55°
2026-05-06 02:36 24.03933 -152.93243 31070 ft 521 kts 55°
2026-05-06 02:36 24.07869 -152.86614 31072 ft 521 kts 55°
2026-05-06 02:37 24.11812 -152.79964 31074 ft 521 kts 55°
2026-05-06 02:37 24.15764 -152.73290 31074 ft 522 kts 55°
2026-05-06 02:38 24.19691 -152.66647 31071 ft 521 kts 55°
2026-05-06 02:38 24.23628 -152.59979 31075 ft 522 kts 55°
2026-05-06 02:39 24.27554 -152.53323 31076 ft 521 kts 55°
2026-05-06 02:39 24.31492 -152.46635 31074 ft 522 kts 55°
2026-05-06 02:40 24.35420 -152.39957 31076 ft 521 kts 55°
2026-05-06 02:40 24.39331 -152.33298 31071 ft 522 kts 55°
2026-05-06 02:41 24.43269 -152.26584 31073 ft 523 kts 55°
2026-05-06 02:41 24.47208 -152.19858 31069 ft 522 kts 55°
2026-05-06 02:42 24.51121 -152.13167 31071 ft 523 kts 55°
2026-05-06 02:42 24.55028 -152.06479 31070 ft 522 kts 55°
2026-05-06 02:43 24.58924 -151.99800 31072 ft 522 kts 55°
2026-05-06 02:43 24.62829 -151.93095 31071 ft 522 kts 55°
2026-05-06 02:44 24.66752 -151.86351 31075 ft 522 kts 55°
2026-05-06 02:44 24.70639 -151.79660 31070 ft 522 kts 55°
2026-05-06 02:45 24.74557 -151.72905 31075 ft 522 kts 55°
2026-05-06 02:45 24.78427 -151.66223 31075 ft 522 kts 55°
2026-05-06 02:46 24.82333 -151.59470 31073 ft 521 kts 55°
2026-05-06 02:46 24.86204 -151.52768 31075 ft 521 kts 55°
2026-05-06 02:47 24.90095 -151.46022 31078 ft 520 kts 55°
2026-05-06 02:47 24.93945 -151.39339 31078 ft 522 kts 55°
2026-05-06 02:48 24.97846 -151.32558 31071 ft 521 kts 56°
2026-05-06 02:48 25.01703 -151.25841 31069 ft 521 kts 56°
2026-05-06 02:49 25.05543 -151.19147 31068 ft 520 kts 56°
2026-05-06 02:49 25.09377 -151.12453 31068 ft 520 kts 56°
2026-05-06 02:50 25.13207 -151.05757 31070 ft 521 kts 56°
2026-05-06 02:50 25.17075 -150.98984 31070 ft 520 kts 56°
2026-05-06 02:51 25.20934 -150.92217 31072 ft 520 kts 56°
2026-05-06 02:51 25.24695 -150.85616 31072 ft 520 kts 56°
2026-05-06 02:52 25.28552 -150.78833 31073 ft 521 kts 56°
2026-05-06 02:52 25.32374 -150.72102 31074 ft 520 kts 56°
2026-05-06 02:53 25.36212 -150.65335 31075 ft 520 kts 56°
2026-05-06 02:53 25.40034 -150.58585 31077 ft 520 kts 56°
2026-05-06 02:54 25.43873 -150.51796 31078 ft 520 kts 56°
2026-05-06 02:54 25.47703 -150.45012 31082 ft 520 kts 56°
2026-05-06 02:55 25.51508 -150.38263 31084 ft 519 kts 56°
2026-05-06 02:55 25.55336 -150.31464 31074 ft 521 kts 56°
2026-05-06 02:56 25.59137 -150.24701 31077 ft 520 kts 56°
2026-05-06 02:56 25.62949 -150.17911 31081 ft 519 kts 56°
2026-05-06 02:57 25.66766 -150.11101 31081 ft 520 kts 56°
2026-05-06 02:57 25.70572 -150.04303 31084 ft 519 kts 56°
2026-05-06 02:58 25.74346 -149.97549 31085 ft 520 kts 56°
2026-05-06 02:58 25.78155 -149.90724 31087 ft 519 kts 56°
2026-05-06 02:59 25.81937 -149.83939 31089 ft 519 kts 56°
2026-05-06 02:59 25.85723 -149.77135 31090 ft 519 kts 56°
2026-05-06 03:00 25.89512 -149.70314 31093 ft 519 kts 56°
2026-05-06 03:00 25.93248 -149.63580 31093 ft 520 kts 56°
2026-05-06 03:01 25.97009 -149.56792 31096 ft 519 kts 56°
2026-05-06 03:01 26.00598 -149.50304 31096 ft 519 kts 56°
2026-05-06 03:02 26.04081 -149.43997 31096 ft 520 kts 56°
2026-05-06 03:02 26.07842 -149.37180 31097 ft 519 kts 56°
2026-05-06 03:03 26.11613 -149.30333 31088 ft 518 kts 57°
2026-05-06 03:03 26.15385 -149.23474 31091 ft 520 kts 57°
2026-05-06 03:04 26.19130 -149.16653 31090 ft 518 kts 57°
2026-05-06 03:04 26.22890 -149.09798 31092 ft 519 kts 57°
2026-05-06 03:05 26.26640 -149.02946 31093 ft 519 kts 57°
2026-05-06 03:05 26.30408 -148.96054 31091 ft 519 kts 57°
2026-05-06 03:06 26.34156 -148.89186 31093 ft 519 kts 57°
2026-05-06 03:06 26.37892 -148.82332 31092 ft 519 kts 57°
2026-05-06 03:07 26.41638 -148.75449 31098 ft 519 kts 57°
2026-05-06 03:07 26.45374 -148.68571 31099 ft 518 kts 57°
2026-05-06 03:08 26.49114 -148.61678 31101 ft 519 kts 57°
2026-05-06 03:08 26.52835 -148.54808 31103 ft 518 kts 57°
2026-05-06 03:09 26.56572 -148.47897 31107 ft 518 kts 57°
2026-05-06 03:09 26.60280 -148.41032 31108 ft 519 kts 57°
2026-05-06 03:10 26.64008 -148.34117 31111 ft 519 kts 57°
2026-05-06 03:10 26.67709 -148.27243 31110 ft 520 kts 57°
2026-05-06 03:11 26.71424 -148.20331 31109 ft 518 kts 57°
2026-05-06 03:11 26.75147 -148.13394 31113 ft 519 kts 57°
2026-05-06 03:12 26.78841 -148.06500 31121 ft 520 kts 57°
2026-05-06 03:12 26.82542 -147.99582 31126 ft 519 kts 57°
2026-05-06 03:13 26.86249 -147.92641 31130 ft 519 kts 57°
2026-05-06 03:13 26.89933 -147.85733 31129 ft 519 kts 57°
2026-05-06 03:14 26.93641 -147.78770 31129 ft 519 kts 57°
2026-05-06 03:14 26.97320 -147.71851 31133 ft 518 kts 57°
2026-05-06 03:15 27.00994 -147.64929 31134 ft 519 kts 57°
2026-05-06 03:15 27.04681 -147.57971 31135 ft 519 kts 57°
2026-05-06 03:16 27.08353 -147.51033 31136 ft 519 kts 57°
2026-05-06 03:16 27.12027 -147.44076 31137 ft 518 kts 57°
2026-05-06 03:17 27.15699 -147.37115 31139 ft 518 kts 57°
2026-05-06 03:17 27.19354 -147.30174 31133 ft 518 kts 58°
2026-05-06 03:18 27.23004 -147.23233 31132 ft 518 kts 58°
2026-05-06 03:18 27.26670 -147.16249 31134 ft 518 kts 58°
2026-05-06 03:19 27.30316 -147.09294 31135 ft 518 kts 58°
2026-05-06 03:19 27.34003 -147.02249 31138 ft 517 kts 58°
2026-05-06 03:20 27.39486 -146.91748 31141 ft 517 kts 58°
2026-05-06 03:20 27.43121 -146.84775 31143 ft 516 kts 58°
2026-05-06 03:21 27.46738 -146.77824 31144 ft 516 kts 58°
2026-05-06 03:21 27.50376 -146.70821 31148 ft 516 kts 58°
2026-05-06 03:22 27.53992 -146.63849 31149 ft 517 kts 58°
2026-05-06 03:22 27.57588 -146.56906 31151 ft 516 kts 58°
2026-05-06 03:23 27.61202 -146.49915 31154 ft 515 kts 58°
2026-05-06 03:23 27.64813 -146.42920 31154 ft 516 kts 58°
2026-05-06 03:24 27.68395 -146.35965 31154 ft 516 kts 58°
2026-05-06 03:24 27.72010 -146.28938 31150 ft 515 kts 59°
2026-05-06 03:25 27.75584 -146.21982 31150 ft 516 kts 59°
2026-05-06 03:25 27.79168 -146.14993 31154 ft 516 kts 59°
2026-05-06 03:26 27.82771 -146.07956 31153 ft 516 kts 59°
2026-05-06 03:26 27.86342 -146.00969 31156 ft 516 kts 59°
2026-05-06 03:27 27.89908 -145.93980 31157 ft 515 kts 59°
2026-05-06 03:27 27.93498 -145.86934 31159 ft 515 kts 59°
2026-05-06 03:28 27.97050 -145.79950 31157 ft 514 kts 59°
2026-05-06 03:28 28.00621 -145.72916 31162 ft 515 kts 59°
2026-05-06 03:29 28.04168 -145.65918 31164 ft 514 kts 59°
2026-05-06 03:29 28.07712 -145.58916 31164 ft 514 kts 59°
2026-05-06 03:30 28.11254 -145.51903 31167 ft 514 kts 59°
2026-05-06 03:30 28.14799 -145.44876 31169 ft 514 kts 59°
2026-05-06 03:31 28.18323 -145.37877 31171 ft 513 kts 59°
2026-05-06 03:31 28.21855 -145.30852 31168 ft 514 kts 59°
2026-05-06 03:32 28.25377 -145.23831 31173 ft 513 kts 59°
2026-05-06 03:32 28.28906 -145.16788 31173 ft 513 kts 59°
2026-05-06 03:33 28.32418 -145.09766 31177 ft 513 kts 59°
2026-05-06 03:33 28.35929 -145.02734 31183 ft 513 kts 59°
2026-05-06 03:34 28.39434 -144.95703 31180 ft 512 kts 59°
2026-05-06 03:34 28.42923 -144.88692 31185 ft 512 kts 59°
2026-05-06 03:35 28.46420 -144.81653 31187 ft 511 kts 59°
2026-05-06 03:35 28.49905 -144.74626 31189 ft 511 kts 59°
2026-05-06 03:36 28.53383 -144.67601 31188 ft 511 kts 59°
2026-05-06 03:36 28.56858 -144.60570 31190 ft 512 kts 59°
2026-05-06 03:37 28.60333 -144.53528 31191 ft 511 kts 59°
2026-05-06 03:37 28.63787 -144.46516 31194 ft 511 kts 59°
2026-05-06 03:38 28.67259 -144.39455 31194 ft 511 kts 59°
2026-05-06 03:38 28.70731 -144.32382 31191 ft 511 kts 60°
2026-05-06 03:39 28.74167 -144.25371 31192 ft 511 kts 60°
2026-05-06 03:39 28.77619 -144.18314 31192 ft 511 kts 60°
2026-05-06 03:40 28.81073 -144.11241 31192 ft 511 kts 60°
2026-05-06 03:40 28.84520 -144.04172 31194 ft 510 kts 60°
2026-05-06 03:41 28.88007 -143.97008 31583 ft 523 kts 60°
2026-05-06 03:41 28.89752 -143.93417 32422 ft 518 kts 60°
2026-05-06 03:41 28.91482 -143.89853 33084 ft 517 kts 59°
2026-05-06 03:42 28.93211 -143.86290 33185 ft 515 kts 59°
2026-05-06 03:42 28.94951 -143.82698 33195 ft 511 kts 59°
2026-05-06 03:42 28.98359 -143.75661 33194 ft 510 kts 59°
2026-05-06 03:43 29.01795 -143.68550 33196 ft 510 kts 59°
2026-05-06 03:43 29.05216 -143.61459 33197 ft 510 kts 59°
2026-05-06 03:44 29.08617 -143.54396 33197 ft 510 kts 59°
2026-05-06 03:44 29.12021 -143.47317 33197 ft 510 kts 59°
2026-05-06 03:45 29.15442 -143.40189 33198 ft 509 kts 59°
2026-05-06 03:45 29.18822 -143.33131 33196 ft 509 kts 60°
2026-05-06 03:46 29.22234 -143.25998 33195 ft 510 kts 60°
2026-05-06 03:46 29.25610 -143.18927 33196 ft 510 kts 60°
2026-05-06 03:47 29.29013 -143.11783 33198 ft 509 kts 60°
2026-05-06 03:47 29.32396 -143.04672 33200 ft 510 kts 60°
2026-05-06 03:48 29.35778 -142.97551 33201 ft 509 kts 60°
2026-05-06 03:48 29.39152 -142.90433 33202 ft 510 kts 60°
2026-05-06 03:49 29.42518 -142.83318 33206 ft 509 kts 60°
2026-05-06 03:49 29.45864 -142.76233 33206 ft 508 kts 60°
2026-05-06 03:50 29.49235 -142.69081 33208 ft 509 kts 60°
2026-05-06 03:50 29.52597 -142.61938 33211 ft 509 kts 60°
2026-05-06 03:51 29.55933 -142.54837 33212 ft 509 kts 60°
2026-05-06 03:51 29.59290 -142.47678 33214 ft 509 kts 60°
2026-05-06 03:52 29.62642 -142.40517 33215 ft 509 kts 60°
2026-05-06 03:52 29.65980 -142.33371 33212 ft 508 kts 60°
2026-05-06 03:53 29.69296 -142.26262 33210 ft 509 kts 60°
2026-05-06 03:53 29.70976 -142.22658 33370 ft 516 kts 60°
2026-05-06 03:53 29.72662 -142.19032 34090 ft 513 kts 60°
2026-05-06 03:54 29.74330 -142.15443 34982 ft 508 kts 60°
2026-05-06 03:54 29.75997 -142.11855 35205 ft 509 kts 60°
2026-05-06 03:54 29.79303 -142.04724 35213 ft 503 kts 60°
2026-05-06 03:55 29.82578 -141.97653 35217 ft 503 kts 60°
2026-05-06 03:55 29.85865 -141.90540 35214 ft 502 kts 60°
2026-05-06 03:56 29.89149 -141.83421 35216 ft 503 kts 60°
2026-05-06 03:56 29.92436 -141.76283 35216 ft 502 kts 60°
2026-05-06 03:57 29.95695 -141.69194 35219 ft 503 kts 60°
2026-05-06 03:57 29.98964 -141.62067 35219 ft 501 kts 60°
2026-05-06 03:58 30.02216 -141.54965 35218 ft 502 kts 60°
2026-05-06 03:58 30.05475 -141.47836 35215 ft 502 kts 60°
2026-05-06 03:59 30.08711 -141.40744 35221 ft 501 kts 60°
2026-05-06 03:59 30.11951 -141.33630 35220 ft 500 kts 60°
2026-05-06 04:00 30.15170 -141.26549 35214 ft 501 kts 60°
2026-05-06 04:00 30.18403 -141.19423 35218 ft 501 kts 60°
2026-05-06 04:01 30.21612 -141.12340 35221 ft 500 kts 60°
2026-05-06 04:01 30.24838 -141.05205 35218 ft 500 kts 60°
2026-05-06 04:02 30.28056 -140.98073 35219 ft 500 kts 60°
2026-05-06 04:02 30.31245 -140.90994 35221 ft 500 kts 60°
2026-05-06 04:03 30.34447 -140.83872 35225 ft 500 kts 60°
2026-05-06 04:03 30.37645 -140.76744 35228 ft 499 kts 60°
2026-05-06 04:04 30.40836 -140.69620 35230 ft 499 kts 60°
2026-05-06 04:04 30.44026 -140.62477 35230 ft 499 kts 60°
2026-05-06 04:05 30.47216 -140.55316 35234 ft 499 kts 60°
2026-05-06 04:05 30.50394 -140.48169 35234 ft 499 kts 60°
2026-05-06 04:06 30.53559 -140.41038 35233 ft 499 kts 60°
2026-05-06 04:06 30.56714 -140.33917 35234 ft 498 kts 61°
2026-05-06 04:07 30.59878 -140.26762 35229 ft 498 kts 61°
2026-05-06 04:07 30.63036 -140.19608 35234 ft 498 kts 61°
2026-05-06 04:08 30.66181 -140.12470 35235 ft 498 kts 61°
2026-05-06 04:08 30.69319 -140.05333 35232 ft 498 kts 61°
2026-05-06 04:09 30.72447 -139.98204 35235 ft 498 kts 61°
2026-05-06 04:09 30.75596 -139.91016 35234 ft 497 kts 61°
2026-05-06 04:10 30.78721 -139.83870 35236 ft 498 kts 61°
2026-05-06 04:10 30.81848 -139.76704 35236 ft 498 kts 61°
2026-05-06 04:11 30.84960 -139.69560 35236 ft 497 kts 61°
2026-05-06 04:11 30.88074 -139.62396 35237 ft 497 kts 61°
2026-05-06 04:12 30.91197 -139.55199 35235 ft 497 kts 61°
2026-05-06 04:12 30.94294 -139.48045 35236 ft 497 kts 60°
2026-05-06 04:13 30.97401 -139.40857 35236 ft 497 kts 61°
2026-05-06 04:13 31.00497 -139.33679 35235 ft 497 kts 61°
2026-05-06 04:14 31.03596 -139.26482 35231 ft 497 kts 61°
2026-05-06 04:14 31.06668 -139.19333 35234 ft 497 kts 61°
2026-05-06 04:15 31.09754 -139.12138 35234 ft 497 kts 61°
2026-05-06 04:15 31.12824 -139.04965 35237 ft 497 kts 61°
2026-05-06 04:16 31.15908 -138.97748 35236 ft 497 kts 61°
2026-05-06 04:16 31.18973 -138.90559 35239 ft 496 kts 61°
2026-05-06 04:17 31.22051 -138.83325 35240 ft 496 kts 61°
2026-05-06 04:17 31.25096 -138.76157 35242 ft 496 kts 61°
2026-05-06 04:18 31.28140 -138.68974 35244 ft 495 kts 61°
2026-05-06 04:18 31.31200 -138.61742 35244 ft 496 kts 61°
2026-05-06 04:19 31.34250 -138.54518 35247 ft 495 kts 61°
2026-05-06 04:19 31.37291 -138.47302 35247 ft 495 kts 61°
2026-05-06 04:20 31.40312 -138.40118 35246 ft 495 kts 61°
2026-05-06 04:20 31.43348 -138.32886 35243 ft 494 kts 61°
2026-05-06 04:21 31.46378 -138.25652 35243 ft 495 kts 61°
2026-05-06 04:21 31.49393 -138.18440 35243 ft 494 kts 61°
2026-05-06 04:22 31.52404 -138.11224 35246 ft 494 kts 61°
2026-05-06 04:23 31.56903 -138.00413 35247 ft 493 kts 61°
2026-05-06 04:23 31.59910 -137.93170 35247 ft 493 kts 61°
2026-05-06 04:24 31.62905 -137.85944 35247 ft 493 kts 61°
2026-05-06 04:24 31.65881 -137.78748 35247 ft 494 kts 61°
2026-05-06 04:25 31.68860 -137.71527 35245 ft 493 kts 61°
2026-05-06 04:25 31.71846 -137.64278 35244 ft 493 kts 61°
2026-05-06 04:26 31.74814 -137.57057 35246 ft 493 kts 61°
2026-05-06 04:26 31.77775 -137.49837 35244 ft 493 kts 61°
2026-05-06 04:27 31.80757 -137.42554 35243 ft 492 kts 61°
2026-05-06 04:27 31.83704 -137.35339 35242 ft 492 kts 61°
2026-05-06 04:28 31.86662 -137.28082 35236 ft 492 kts 62°
2026-05-06 04:28 31.89611 -137.20834 35237 ft 492 kts 62°
2026-05-06 04:29 31.92554 -137.13588 35233 ft 491 kts 62°
2026-05-06 04:29 31.95491 -137.06339 35235 ft 492 kts 62°
2026-05-06 04:30 31.98405 -136.99135 35234 ft 491 kts 62°
2026-05-06 04:30 32.01333 -136.91881 35232 ft 491 kts 62°
2026-05-06 04:31 32.04257 -136.84619 35236 ft 491 kts 61°
2026-05-06 04:31 32.07176 -136.77356 35233 ft 491 kts 61°
2026-05-06 04:32 32.10101 -136.70064 35236 ft 490 kts 61°
2026-05-06 04:32 32.12991 -136.62845 35242 ft 491 kts 61°
2026-05-06 04:33 32.15892 -136.55580 35243 ft 491 kts 61°
2026-05-06 04:33 32.18796 -136.48294 35244 ft 491 kts 61°
2026-05-06 04:34 32.21707 -136.40977 35245 ft 490 kts 61°
2026-05-06 04:34 32.24591 -136.33714 35243 ft 490 kts 62°
2026-05-06 04:35 32.27462 -136.26466 35240 ft 491 kts 62°
2026-05-06 04:35 32.30339 -136.19188 35241 ft 490 kts 61°
2026-05-06 04:36 32.33216 -136.11894 35241 ft 490 kts 61°
2026-05-06 04:36 32.36078 -136.04623 35244 ft 490 kts 61°
2026-05-06 04:37 32.38954 -135.97302 35244 ft 490 kts 61°
2026-05-06 04:37 32.41817 -135.89999 35245 ft 489 kts 61°
2026-05-06 04:38 32.44661 -135.82732 35247 ft 490 kts 61°
2026-05-06 04:38 32.47514 -135.75423 35245 ft 490 kts 61°
2026-05-06 04:39 32.50370 -135.68088 35243 ft 490 kts 61°
2026-05-06 04:39 32.53211 -135.60780 35242 ft 489 kts 61°
2026-05-06 04:40 32.56036 -135.53499 35243 ft 489 kts 61°
2026-05-06 04:40 32.58877 -135.46159 35245 ft 488 kts 61°
2026-05-06 04:41 32.61701 -135.38849 35240 ft 489 kts 61°
2026-05-06 04:41 32.64521 -135.31532 35238 ft 490 kts 61°
2026-05-06 04:42 32.67345 -135.24190 35238 ft 489 kts 61°
2026-05-06 04:42 32.70155 -135.16867 35238 ft 490 kts 61°
2026-05-06 04:43 32.72962 -135.09537 35238 ft 490 kts 61°
2026-05-06 04:43 32.75768 -135.02193 35231 ft 489 kts 61°
2026-05-06 04:44 32.78564 -134.94859 35234 ft 488 kts 61°
2026-05-06 04:44 32.81363 -134.87506 35234 ft 491 kts 61°
2026-05-06 04:45 32.84159 -134.80141 35234 ft 489 kts 61°
2026-05-06 04:45 32.86945 -134.72784 35233 ft 487 kts 61°
2026-05-06 04:46 32.89724 -134.65433 35235 ft 488 kts 61°
2026-05-06 04:46 32.92492 -134.58096 35234 ft 488 kts 60°
2026-05-06 04:47 32.95262 -134.50735 35234 ft 488 kts 60°
2026-05-06 04:47 32.98013 -134.43411 35234 ft 487 kts 60°
2026-05-06 04:48 33.00762 -134.36073 35234 ft 487 kts 60°
2026-05-06 04:48 33.03529 -134.28674 35228 ft 487 kts 61°
2026-05-06 04:49 33.06260 -134.21356 35230 ft 487 kts 61°
2026-05-06 04:49 33.09003 -134.13985 35227 ft 486 kts 61°
2026-05-06 04:50 33.11736 -134.06630 35239 ft 486 kts 61°
2026-05-06 04:50 33.14463 -133.99269 35239 ft 485 kts 61°
2026-05-06 04:51 33.17171 -133.91948 35234 ft 484 kts 61°
2026-05-06 04:51 33.19880 -133.84607 35236 ft 485 kts 60°
2026-05-06 04:52 33.22587 -133.77255 35239 ft 485 kts 60°
2026-05-06 04:52 33.25301 -133.69869 35232 ft 484 kts 60°
2026-05-06 04:53 33.27992 -133.62527 35232 ft 484 kts 60°
2026-05-06 04:53 33.30693 -133.55145 35233 ft 484 kts 60°
2026-05-06 04:54 33.33363 -133.47830 35226 ft 483 kts 60°
2026-05-06 04:54 33.36053 -133.40451 35221 ft 484 kts 60°
2026-05-06 04:55 33.38713 -133.33131 35217 ft 483 kts 61°
2026-05-06 04:55 33.41377 -133.25787 35216 ft 483 kts 61°
2026-05-06 04:56 33.44053 -133.18393 35217 ft 484 kts 60°
2026-05-06 04:56 33.46711 -133.11031 35215 ft 481 kts 60°
2026-05-06 04:57 33.49362 -133.03671 35214 ft 483 kts 60°
2026-05-06 04:57 33.52007 -132.96312 35215 ft 481 kts 60°
2026-05-06 04:58 33.54658 -132.88922 35206 ft 483 kts 61°
2026-05-06 04:58 33.57285 -132.81578 35211 ft 481 kts 61°
2026-05-06 04:59 33.59922 -132.74193 35209 ft 482 kts 61°
2026-05-06 04:59 33.62549 -132.66815 35214 ft 480 kts 61°
2026-05-06 05:00 33.65161 -132.59465 35209 ft 481 kts 62°
2026-05-06 05:00 33.67759 -132.52139 35209 ft 480 kts 62°
2026-05-06 05:01 33.70376 -132.44742 35205 ft 478 kts 62°
2026-05-06 05:01 33.72958 -132.37427 35201 ft 479 kts 62°
2026-05-06 05:02 33.75547 -132.30075 35198 ft 479 kts 63°
2026-05-06 05:02 33.78141 -132.22693 35198 ft 479 kts 63°
2026-05-06 05:03 33.80704 -132.15382 35198 ft 478 kts 63°
2026-05-06 05:03 33.83291 -132.07985 35195 ft 478 kts 63°
2026-05-06 05:04 33.85860 -132.00623 35191 ft 478 kts 64°
2026-05-06 05:04 33.88411 -131.93297 35190 ft 477 kts 64°
2026-05-06 05:05 33.90976 -131.85910 35192 ft 478 kts 64°
2026-05-06 05:05 33.93521 -131.78564 35193 ft 476 kts 64°
2026-05-06 05:06 33.96060 -131.71223 35192 ft 476 kts 64°
2026-05-06 05:06 33.98582 -131.63911 35193 ft 475 kts 64°
2026-05-06 05:07 34.01115 -131.56551 35188 ft 475 kts 64°
2026-05-06 05:07 34.03628 -131.49231 35193 ft 475 kts 64°
2026-05-06 05:08 34.06141 -131.41893 35194 ft 474 kts 64°
2026-05-06 05:08 34.08655 -131.34537 35196 ft 474 kts 65°
2026-05-06 05:09 34.11086 -131.27408 35195 ft 473 kts 65°
2026-05-06 05:09 34.13571 -131.20102 35200 ft 472 kts 65°
2026-05-06 05:10 34.16059 -131.12772 35198 ft 471 kts 65°
2026-05-06 05:10 34.18532 -131.05469 35198 ft 472 kts 65°
2026-05-06 05:11 34.20990 -130.98190 35196 ft 470 kts 65°
2026-05-06 05:11 34.23458 -130.90869 35195 ft 470 kts 65°
2026-05-06 05:12 34.25902 -130.83600 35190 ft 469 kts 65°
2026-05-06 05:12 34.28345 -130.76315 35192 ft 467 kts 65°
2026-05-06 05:13 34.30779 -130.69045 35188 ft 467 kts 65°
2026-05-06 05:13 34.33210 -130.61765 35189 ft 467 kts 65°
2026-05-06 05:14 34.35626 -130.54507 35188 ft 466 kts 65°
2026-05-06 05:14 34.38051 -130.47211 35182 ft 466 kts 66°
2026-05-06 05:15 34.40437 -130.40013 35183 ft 464 kts 65°
2026-05-06 05:15 34.42844 -130.32736 35189 ft 465 kts 66°
2026-05-06 05:16 34.45233 -130.25494 35179 ft 464 kts 66°
2026-05-06 05:16 34.47627 -130.18224 35176 ft 464 kts 66°
2026-05-06 05:17 34.49992 -130.11020 35174 ft 464 kts 66°
2026-05-06 05:17 34.52365 -130.03780 35178 ft 463 kts 66°
2026-05-06 05:18 34.54732 -129.96536 35175 ft 462 kts 66°
2026-05-06 05:18 34.57076 -129.89349 35172 ft 460 kts 66°
2026-05-06 05:19 34.59423 -129.82134 35171 ft 461 kts 66°
2026-05-06 05:19 34.61771 -129.74899 35170 ft 459 kts 66°
2026-05-06 05:20 34.64104 -129.67697 35171 ft 460 kts 66°
2026-05-06 05:20 34.66422 -129.60519 35170 ft 458 kts 67°
2026-05-06 05:21 34.68746 -129.53307 35170 ft 458 kts 67°
2026-05-06 05:21 34.71053 -129.46129 35170 ft 458 kts 67°
2026-05-06 05:22 34.73362 -129.38927 35169 ft 457 kts 67°
2026-05-06 05:22 34.75653 -129.31767 35173 ft 455 kts 67°
2026-05-06 05:23 34.77944 -129.24589 35171 ft 456 kts 68°
2026-05-06 05:23 34.81368 -129.13829 35173 ft 455 kts 68°
2026-05-06 05:24 34.83631 -129.06696 35171 ft 455 kts 68°
2026-05-06 05:24 34.85907 -128.99504 35171 ft 454 kts 68°
2026-05-06 05:25 34.88165 -128.92351 35169 ft 454 kts 68°
2026-05-06 05:25 34.90419 -128.85194 35166 ft 453 kts 68°
2026-05-06 05:26 34.92659 -128.78064 35164 ft 454 kts 68°
2026-05-06 05:26 34.94896 -128.70927 35162 ft 452 kts 68°
2026-05-06 05:27 34.97138 -128.63760 35162 ft 452 kts 68°
2026-05-06 05:27 34.99365 -128.56624 35160 ft 451 kts 68°
2026-05-06 05:28 35.01586 -128.49481 35154 ft 450 kts 68°
2026-05-06 05:28 35.03799 -128.42357 35154 ft 451 kts 68°
2026-05-06 05:29 35.05996 -128.35261 35152 ft 449 kts 68°
2026-05-06 05:29 35.08197 -128.28136 35158 ft 449 kts 68°
2026-05-06 05:30 35.10397 -128.20999 35156 ft 449 kts 68°
2026-05-06 05:30 35.12576 -128.13911 35159 ft 448 kts 68°
2026-05-06 05:31 35.14769 -128.06761 35157 ft 448 kts 68°
2026-05-06 05:31 35.16931 -127.99693 35155 ft 446 kts 68°
2026-05-06 05:32 35.19100 -127.92587 35153 ft 448 kts 68°
2026-05-06 05:32 35.21270 -127.85458 35151 ft 447 kts 68°
2026-05-06 05:33 35.23419 -127.78383 35147 ft 445 kts 68°
2026-05-06 05:33 35.25580 -127.71252 35145 ft 446 kts 68°
2026-05-06 05:34 35.27713 -127.64194 35144 ft 446 kts 68°
2026-05-06 05:34 35.29849 -127.57107 35144 ft 445 kts 68°
2026-05-06 05:35 35.31987 -127.50000 35142 ft 445 kts 68°
2026-05-06 05:35 35.34116 -127.42900 35135 ft 443 kts 68°
2026-05-06 05:36 35.36224 -127.35857 35136 ft 444 kts 68°
2026-05-06 05:36 35.38347 -127.28745 35143 ft 444 kts 69°
2026-05-06 05:37 35.40458 -127.21654 35139 ft 443 kts 69°
2026-05-06 05:37 35.42559 -127.14580 35135 ft 442 kts 69°
2026-05-06 05:38 35.44647 -127.07537 35133 ft 442 kts 69°
2026-05-06 05:38 35.46744 -127.00438 35133 ft 442 kts 69°
2026-05-06 05:39 35.48830 -126.93364 35131 ft 441 kts 69°
2026-05-06 05:39 35.50894 -126.86347 35126 ft 440 kts 69°
2026-05-06 05:40 35.52973 -126.79260 35125 ft 440 kts 69°
2026-05-06 05:40 35.55032 -126.72221 35123 ft 440 kts 69°
2026-05-06 05:41 35.57088 -126.65178 35123 ft 439 kts 69°
2026-05-06 05:41 35.59145 -126.58113 35116 ft 439 kts 69°
2026-05-06 05:42 35.61179 -126.51109 35118 ft 438 kts 69°
2026-05-06 05:42 35.63223 -126.44054 35114 ft 437 kts 69°
2026-05-06 05:43 35.65241 -126.37070 35114 ft 437 kts 69°
2026-05-06 05:43 35.67268 -126.30036 35119 ft 436 kts 69°
2026-05-06 05:44 35.69291 -126.23003 35117 ft 436 kts 69°
2026-05-06 05:44 35.71305 -126.15978 35113 ft 435 kts 69°
2026-05-06 05:45 35.73299 -126.09008 35107 ft 434 kts 69°
2026-05-06 05:45 35.75613 -126.02165 35112 ft 435 kts 65°
2026-05-06 05:46 35.78003 -125.95305 35110 ft 433 kts 65°
2026-05-06 05:46 35.80343 -125.88527 35106 ft 434 kts 65°
2026-05-06 05:47 35.82692 -125.81681 35098 ft 432 kts 65°
2026-05-06 05:47 35.84958 -125.75050 35105 ft 432 kts 65°
2026-05-06 05:48 35.87180 -125.68530 35099 ft 432 kts 65°
2026-05-06 05:48 35.89497 -125.61710 35102 ft 432 kts 65°
2026-05-06 05:49 35.91801 -125.54913 35092 ft 431 kts 65°
2026-05-06 05:49 35.94099 -125.48119 35087 ft 431 kts 65°
2026-05-06 05:50 35.96404 -125.41286 35092 ft 431 kts 65°
2026-05-06 05:50 35.98691 -125.34491 35090 ft 430 kts 66°
2026-05-06 05:51 36.00986 -125.27659 35098 ft 431 kts 66°
2026-05-06 05:51 36.02121 -125.24274 34989 ft 425 kts 66°
2026-05-06 05:51 36.03249 -125.20902 34281 ft 426 kts 66°
2026-05-06 05:52 36.04372 -125.17545 33620 ft 424 kts 66°
2026-05-06 05:52 36.05503 -125.14163 32963 ft 422 kts 66°
2026-05-06 05:52 36.06610 -125.10845 32282 ft 422 kts 66°
2026-05-06 05:52 36.07720 -125.07517 31571 ft 421 kts 66°
2026-05-06 05:53 36.08822 -125.04205 31316 ft 410 kts 66°
2026-05-06 05:53 36.09879 -125.01024 31221 ft 397 kts 66°
2026-05-06 05:53 36.10927 -124.97870 30879 ft 389 kts 65°
2026-05-06 05:53 36.11946 -124.94802 30317 ft 388 kts 65°
2026-05-06 05:54 36.12956 -124.91757 29706 ft 387 kts 66°
2026-05-06 05:54 36.13972 -124.88690 29123 ft 386 kts 65°
2026-05-06 05:54 36.14994 -124.85603 28563 ft 385 kts 65°
2026-05-06 05:54 36.15988 -124.82597 28053 ft 382 kts 65°
2026-05-06 05:55 36.16999 -124.79537 27520 ft 380 kts 65°
2026-05-06 05:55 36.18094 -124.76625 27118 ft 372 kts 59°
2026-05-06 05:55 36.19470 -124.73947 26928 ft 363 kts 53°
2026-05-06 05:55 36.21003 -124.71493 26202 ft 367 kts 50°
2026-05-06 05:56 36.22604 -124.68997 25436 ft 371 kts 50°
2026-05-06 05:56 36.24192 -124.66513 24858 ft 371 kts 50°
2026-05-06 05:56 36.25769 -124.64039 24402 ft 367 kts 50°
2026-05-06 05:56 36.27352 -124.61552 23931 ft 364 kts 50°
2026-05-06 05:57 36.28905 -124.59108 23423 ft 363 kts 50°
2026-05-06 05:57 36.30471 -124.56641 22886 ft 362 kts 50°
2026-05-06 05:57 36.32012 -124.54209 22425 ft 360 kts 50°
2026-05-06 05:57 36.33543 -124.51792 21967 ft 357 kts 50°
2026-05-06 05:58 36.35076 -124.49369 21517 ft 355 kts 50°
2026-05-06 05:58 36.36573 -124.47002 21136 ft 350 kts 49°
2026-05-06 05:58 36.38085 -124.44609 21082 ft 351 kts 50°
2026-05-06 05:58 36.39599 -124.42213 21073 ft 354 kts 50°
2026-05-06 05:59 36.41104 -124.39829 21072 ft 354 kts 50°
2026-05-06 05:59 36.42627 -124.37412 21072 ft 353 kts 50°
2026-05-06 05:59 36.44129 -124.35027 21073 ft 352 kts 50°
2026-05-06 05:59 36.45654 -124.32606 21074 ft 353 kts 50°
2026-05-06 06:00 36.47176 -124.30187 21075 ft 353 kts 50°
2026-05-06 06:00 36.48680 -124.27794 21076 ft 353 kts 50°
2026-05-06 06:00 36.50184 -124.25400 21073 ft 353 kts 50°
2026-05-06 06:00 36.51714 -124.22965 21072 ft 353 kts 50°
2026-05-06 06:01 36.53218 -124.20566 21072 ft 352 kts 50°
2026-05-06 06:01 36.54724 -124.18163 21074 ft 353 kts 50°
2026-05-06 06:01 36.56221 -124.15775 21070 ft 352 kts 50°
2026-05-06 06:01 36.57732 -124.13361 21071 ft 352 kts 50°
2026-05-06 06:02 36.59234 -124.10958 21069 ft 352 kts 50°
2026-05-06 06:02 36.60735 -124.08559 21068 ft 351 kts 50°
2026-05-06 06:02 36.62232 -124.06162 21071 ft 352 kts 50°
2026-05-06 06:02 36.63736 -124.03753 21069 ft 352 kts 50°
2026-05-06 06:03 36.65234 -124.01351 21069 ft 352 kts 50°
2026-05-06 06:03 36.66727 -123.98958 21068 ft 352 kts 50°
2026-05-06 06:03 36.68214 -123.96570 21068 ft 352 kts 50°
2026-05-06 06:03 36.69717 -123.94155 21067 ft 351 kts 50°
2026-05-06 06:04 36.71219 -123.91741 21065 ft 352 kts 50°
2026-05-06 06:04 36.72704 -123.89353 21065 ft 352 kts 50°
2026-05-06 06:04 36.74211 -123.86926 21067 ft 351 kts 50°
2026-05-06 06:04 36.75701 -123.84526 21063 ft 351 kts 50°
2026-05-06 06:05 36.77190 -123.82125 21064 ft 351 kts 50°
2026-05-06 06:05 36.78680 -123.79721 21066 ft 352 kts 50°
2026-05-06 06:05 36.80179 -123.77303 21063 ft 352 kts 50°
2026-05-06 06:05 36.81681 -123.74874 21057 ft 351 kts 50°
2026-05-06 06:06 36.83164 -123.72477 21058 ft 352 kts 50°
2026-05-06 06:06 36.84647 -123.70077 21057 ft 351 kts 50°
2026-05-06 06:06 36.86154 -123.67638 21059 ft 350 kts 50°
2026-05-06 06:06 36.87624 -123.65256 21060 ft 351 kts 50°
2026-05-06 06:07 36.89115 -123.62837 21061 ft 351 kts 50°
2026-05-06 06:07 36.90604 -123.60423 21060 ft 352 kts 50°
2026-05-06 06:07 36.92090 -123.58011 21055 ft 351 kts 50°
2026-05-06 06:07 36.93579 -123.55589 21043 ft 346 kts 50°
2026-05-06 06:08 36.95037 -123.53216 20649 ft 343 kts 50°
2026-05-06 06:08 36.96487 -123.50854 20022 ft 346 kts 50°
2026-05-06 06:08 36.97941 -123.48486 19445 ft 348 kts 50°
2026-05-06 06:08 36.99412 -123.46086 18971 ft 346 kts 50°
2026-05-06 06:09 37.00860 -123.43722 18535 ft 343 kts 50°
2026-05-06 06:09 37.02311 -123.41353 18085 ft 341 kts 50°
2026-05-06 06:09 37.03737 -123.39023 17608 ft 340 kts 50°
2026-05-06 06:09 37.05176 -123.36668 17157 ft 338 kts 50°
2026-05-06 06:10 37.06594 -123.34347 16734 ft 335 kts 50°
2026-05-06 06:10 37.08017 -123.32016 16306 ft 332 kts 50°
2026-05-06 06:10 37.09381 -123.29778 16129 ft 319 kts 50°
2026-05-06 06:10 37.10710 -123.27596 16039 ft 306 kts 50°
2026-05-06 06:11 37.11992 -123.25494 15711 ft 303 kts 50°
2026-05-06 06:11 37.13265 -123.23405 15245 ft 304 kts 50°
2026-05-06 06:11 37.14547 -123.21300 14841 ft 303 kts 50°
2026-05-06 06:11 37.15818 -123.19212 14482 ft 301 kts 50°
2026-05-06 06:12 37.17088 -123.17125 14101 ft 299 kts 50°
2026-05-06 06:12 37.18330 -123.15078 13745 ft 297 kts 50°
2026-05-06 06:12 37.19414 -123.12866 13337 ft 300 kts 64°
2026-05-06 06:12 37.20094 -123.10381 12931 ft 301 kts 69°
2026-05-06 06:13 37.20691 -123.07875 12583 ft 299 kts 69°
2026-05-06 06:13 37.21273 -123.05402 12196 ft 299 kts 69°
2026-05-06 06:13 37.21860 -123.02906 11820 ft 297 kts 69°
2026-05-06 06:13 37.22446 -123.00434 11448 ft 296 kts 69°
2026-05-06 06:14 37.23023 -122.97984 11121 ft 293 kts 69°
2026-05-06 06:14 37.23588 -122.95581 11094 ft 278 kts 69°
2026-05-06 06:14 37.24120 -122.93315 11088 ft 264 kts 69°
2026-05-06 06:14 37.24628 -122.91152 10965 ft 255 kts 69°
2026-05-06 06:15 37.25053 -122.89355 10641 ft 257 kts 69°
2026-05-06 06:15 37.25559 -122.87209 10287 ft 257 kts 69°
2026-05-06 06:15 37.26064 -122.85059 9972 ft 255 kts 69°
2026-05-06 06:15 37.26557 -122.82955 9662 ft 254 kts 69°
2026-05-06 06:16 37.27053 -122.80837 9338 ft 253 kts 69°
2026-05-06 06:16 37.27549 -122.78715 9023 ft 251 kts 69°
2026-05-06 06:16 37.28037 -122.76628 8713 ft 251 kts 69°
2026-05-06 06:16 37.28529 -122.74522 8367 ft 251 kts 69°
2026-05-06 06:17 37.29015 -122.72438 8069 ft 249 kts 69°
2026-05-06 06:17 37.29500 -122.70356 7926 ft 245 kts 69°
2026-05-06 06:17 37.29979 -122.68303 7917 ft 249 kts 69°
2026-05-06 06:17 37.30463 -122.66222 7917 ft 249 kts 69°
2026-05-06 06:18 37.30949 -122.64133 7912 ft 248 kts 69°
2026-05-06 06:18 37.31430 -122.62059 7910 ft 248 kts 69°
2026-05-06 06:18 37.31913 -122.59980 7898 ft 248 kts 69°
2026-05-06 06:18 37.32394 -122.57904 7905 ft 249 kts 70°
2026-05-06 06:19 37.32877 -122.55818 7896 ft 249 kts 70°
2026-05-06 06:19 37.33363 -122.53719 7895 ft 248 kts 69°
2026-05-06 06:19 37.33846 -122.51630 7894 ft 249 kts 70°
2026-05-06 06:19 37.34325 -122.49554 7905 ft 246 kts 70°
2026-05-06 06:20 37.34814 -122.47437 7906 ft 248 kts 70°
2026-05-06 06:20 37.35289 -122.45377 7908 ft 247 kts 69°
2026-05-06 06:20 37.35769 -122.43293 7907 ft 247 kts 70°
2026-05-06 06:20 37.36246 -122.41223 7903 ft 247 kts 69°
2026-05-06 06:21 37.36722 -122.39153 7897 ft 243 kts 70°
2026-05-06 06:21 37.37176 -122.37166 7893 ft 228 kts 69°
2026-05-06 06:21 37.37607 -122.35291 7886 ft 223 kts 69°
2026-05-06 06:21 37.38039 -122.33415 7899 ft 225 kts 70°
2026-05-06 06:22 37.38473 -122.31522 7902 ft 226 kts 70°
2026-05-06 06:22 37.38905 -122.29635 7896 ft 225 kts 70°
2026-05-06 06:22 37.39338 -122.27744 7899 ft 224 kts 68°
2026-05-06 06:22 37.40067 -122.25998 7614 ft 225 kts 47°
2026-05-06 06:23 37.41286 -122.24812 7229 ft 223 kts 24°
2026-05-06 06:23 37.42762 -122.24245 6898 ft 221 kts 15°
2026-05-06 06:23 37.44192 -122.23527 6581 ft 220 kts 28°
2026-05-06 06:23 37.45469 -122.22493 6287 ft 218 kts 34°
2026-05-06 06:24 37.46706 -122.21388 5987 ft 216 kts 34°
2026-05-06 06:24 37.47912 -122.20299 5711 ft 215 kts 35°
2026-05-06 06:24 37.49140 -122.19183 5414 ft 214 kts 34°
2026-05-06 06:24 37.50340 -122.18092 5128 ft 212 kts 35°
2026-05-06 06:25 37.51522 -122.17017 4846 ft 211 kts 34°
2026-05-06 06:25 37.52721 -122.15928 4554 ft 209 kts 34°
2026-05-06 06:25 37.55068 -122.13792 3991 ft 207 kts 34°
2026-05-06 06:26 37.56216 -122.12744 3718 ft 206 kts 34°
2026-05-06 06:26 37.57393 -122.11672 3431 ft 205 kts 34°
2026-05-06 06:26 37.58536 -122.10632 3153 ft 204 kts 34°
2026-05-06 06:26 37.59701 -122.09595 2890 ft 201 kts 28°
2026-05-06 06:27 37.61038 -122.09216 2596 ft 193 kts 352°
2026-05-06 06:27 37.62258 -122.09771 2335 ft 185 kts 321°
2026-05-06 06:27 37.63114 -122.10947 2105 ft 179 kts 308°
2026-05-06 06:27 37.63894 -122.12161 1881 ft 175 kts 310°
2026-05-06 06:28 37.64681 -122.13309 1655 ft 169 kts 310°
2026-05-06 06:28 37.65413 -122.14395 1445 ft 155 kts 309°
2026-05-06 06:28 37.66091 -122.15402 1249 ft 146 kts 309°
2026-05-06 06:28 37.66740 -122.16367 1071 ft 143 kts 309°
2026-05-06 06:29 37.67383 -122.17326 882 ft 144 kts 309°
2026-05-06 06:29 37.68037 -122.18298 687 ft 144 kts 308°
2026-05-06 06:29 37.68689 -122.19269 493 ft 143 kts 308°
2026-05-06 06:29 37.69330 -122.20225 302 ft 143 kts 308°
2026-05-06 06:30 37.69993 -122.21190 76 ft 144 kts 308°
2026-05-06 06:30 37.70566 -122.22056 19 ft 100 kts 310°
2026-05-06 06:30 37.70873 -122.22504 19 ft 34 kts 325°
2026-05-06 06:30 37.71003 -122.22598 19 ft 19 kts 336°
2026-05-06 06:31 37.71125 -122.22622 19 ft 17 kts 17°
2026-05-06 06:31 37.71175 -122.22537 19 ft 13 kts 106°
2026-05-06 06:31 37.71126 -122.22424 19 ft 16 kts 80°
2026-05-06 06:31 37.71201 -122.22336 19 ft 14 kts 39°
2026-05-06 06:32 37.71277 -122.22253 19 ft 15 kts 45°
2026-05-06 06:32 37.71350 -122.22159 19 ft 14 kts 45°
2026-05-06 06:32 37.71416 -122.22070 19 ft 13 kts 49°
2026-05-06 06:32 37.71480 -122.21989 19 ft 12 kts 26°
2026-05-06 06:33 37.71556 -122.22029 19 ft 13 kts 319°
2026-05-06 06:33 37.71630 -122.22035 19 ft 11 kts 43°
2026-05-06 06:33 37.71629 -122.21998 19 ft 0 kts 141°
2026-05-06 06:33 37.71600 -122.21970 19 ft 0 kts 141°
2026-05-06 06:34 37.71596 -122.21967 19 ft 0 kts 141°